< < Back
Terminal Aerodrome Forecast


Current Version              Previous Versions:   1  2  3  4  5  6  7  8  9  

Terminal Aerodrome Forecast

730
FTUS44 KOHX 191100
TAFCSV
TAF
KCSV 191120Z 1912/2012 00000KT P6SM SCT040
      TEMPO 1912/1913 4SM BR
     FM191400 12004KT P6SM SCT040=



Latest METAR

334
SAUS70 KWBC 192300 RRN
MTRCSV
METAR KCSV 192253Z AUTO 00000KT 10SM CLR 24/17 A3011 RMK AO2 SLP180
T02440167


USA.gov is the U.S. government's official web portal to all federal, state and local government web resources and services.